Regional Weather Roundup
Issued by NWS

Home | Current Version | Previous Version | Text Only | Print | Product List | Glossary Off
Versions: 1 2 3 4 5 6 7 8 9 10 11 12 13 14 15 16 17 18 19 20 21 22 23 24 25 26 27 28 29 30 31 32 33 34 35 36 37 38 39 40 41 42 43 44 45 46 47 48 49 50

000
ASUS45 KTFX 131110
RWRMT
MONTANA REGIONAL WEATHER ROUNDUP
NATIONAL WEATHER SERVICE GREAT FALLS MT
400 AM MST SAT FEB 13 2016

NOTE: "FAIR" INDICATES FEW OR NO CLOUDS BELOW 12000 FEET WITH NO
SIGNIFICANT WEATHER AND/OR OBSTRUCTIONS TO VISIBILITY.

MTZ001>007-043-131200-
WEST OF THE DIVIDE

CITY           SKY/WX    TMP DP  RH WIND       PRES   REMARKS
KALISPELL      CLOUDY    36  35  96 S12       30.00S WCI  28
MISSOULA       LGT RAIN  37  37 100 N5        30.07R
BUTTE          MIX PCPN  39  29  67 W20G28    30.01R WCI  29
MULLAN PASS    SNOW      28  27  96 VRB5      30.01S VSB 1/2
ANACONDA         N/A     43  36  75 S12G17    29.99R
DEER LODGE       N/A     41  37  87 NW10      30.00R
HAMILTON         N/A     43  37  81 NE5       30.06R
PLAINS           N/A     40  37  89 N2        30.06S
$$

MTZ008-052>055-131200-
SOUTHWEST MONTANA

CITY           SKY/WX    TMP DP  RH WIND       PRES   REMARKS
BOZEMAN        CLOUDY    29  26  89 CALM      29.98F
DILLON         CLOUDY    35  23  61 SW14      30.00F WCI  26
ENNIS          CLOUDY    39  21  48 S17       30.08F WCI  30
TWIN BRIDGES     N/A     35  22  59 SE2       30.00F
$$

MTZ009-010-012-014-046-048-049-054-131200-
EAST SLOPES AND CENTRAL MONTANA

CITY           SKY/WX    TMP DP  RH WIND       PRES   REMARKS
CUT BANK       CLOUDY    41  30  65 SW10      29.86R
GREAT FALLS    CLEAR     35  28  75 NE3       29.86S
MALMSTROM AFB  CLEAR     32  28  84 SW2       29.86F
HELENA         PTCLDY    32  30  92 SW5       29.92F
CHOTEAU          N/A     48  30  49 W21G28    29.87F
CONRAD           N/A     29  29 100 E5        29.89S
$$

MTZ011-013-016-021-045-047-050-051-131200-
NORTH CENTRAL MONTANA

CITY           SKY/WX    TMP DP  RH WIND       PRES   REMARKS
HAVRE          FOG       22  22 100 SW3       29.88F VSB 1/4
LEWISTOWN      CLOUDY    38  30  73 E6        29.88F
N BAR RANCH      N/A     36  30  80 CALM      29.92F
CHINOOK          N/A     25  25 100 E6        29.90F WCI  18
$$

MTZ017>020-022>027-061-062-131200-
NORTHEAST MONTANA

CITY           SKY/WX    TMP DP  RH WIND       PRES   REMARKS
GLASGOW        CLOUDY    18  14  84 E17       29.96F WCI   3
JORDAN           N/A     27  25  92 SE6       29.93F WCI  20
SIDNEY         CLOUDY    19  12  73 SE9       30.10F WCI   9
WOLF POINT     CLOUDY    18  12  77 E10       30.04F WCI   6
PLENTYWOOD       N/A     12  10  92 SE14      30.07F WCI  -3
POPLAR           N/A     18  12  79 E8        30.06F WCI   7
$$

MTZ028>42-056>058-131200-
SOUTHCENTRAL AND SOUTHEAST MONTANA

CITY           SKY/WX    TMP DP  RH WIND       PRES   REMARKS
BAKER          CLOUDY    20  16  84 SE18G29   30.02F WCI   5
BILLINGS       CLOUDY    33  29  85 SW13      29.93F WCI  24
LIVINGSTON     CLOUDY    48  24  39 SW36G44   29.93F
MILES CITY     CLOUDY    29  24  82 SE12      29.97F WCI  19
FORSYTH          N/A     28  27  93 NE5       29.95F
LAUREL           N/A     34  28  79 CALM      29.92F
ROUNDUP          N/A     34  27  76 CALM      29.84F
$$

REGIONAL REPORTS...DAKOTAS

CITY           SKY/WX    TMP DP  RH WIND       PRES   REMARKS
WILLISTON      CLOUDY    13   8  81 SE12      30.14F WCI  -1
MINOT          CLOUDY     8  -5  55 SE9       30.29F WCI  -5
DICKINSON      CLOUDY    11   7  84 SE23G32   30.10F WCI  -9
BEACH          CLOUDY    18  18 100 SE17G25   30.07F WCI   2
CROSBY         CLOUDY    12   9  85 SE15      30.17F WCI  -4
TIOGA          CLOUDY     9   9 100 SE21G28   30.20F WCI -11
WATFORD CITY   CLOUDY    12   7  79 SE13      30.15F WCI  -3
BISMARCK       CLOUDY     9   0  67 SE10      30.35F WCI  -5
GRAND FORKS    CLOUDY    -8 -13  78 S6        30.59F WCI -21
FARGO          CLOUDY    -7 -12  79 SE5       30.60F
BUFFALO SD       N/A     19  16  88 SE15      30.02F WCI   5
RAPID CITY     CLOUDY    28  25  88 SE13      30.07F WCI  17
$$

REGIONAL REPORTS...WYOMING/IDAHO/WASHINGTON

CITY           SKY/WX    TMP DP  RH WIND       PRES   REMARKS
GILLETTE       CLOUDY    31  27  85 SE10G20   29.98F WCI  22
SHERIDAN       CLEAR     28  25  88 CALM      29.94F
BUFFALO WY     CLOUDY    39  25  57 N6        29.96F
CODY           CLOUDY    50  25  37 NE3       29.99F
YELLOWSTONE LA   N/A     31  24  75 VRB3      30.14F
IDAHO FALLS    CLOUDY    25  22  88 E7        30.18S WCI  17
SALMON         CLOUDY    27  25  93 CALM      30.09F
BOISE          PTCLDY    32  31  96 SW3       30.22R FOG
SPOKANE        MOCLDY    41  38  89 SW10      30.11R
$$

REGIONAL REPORTS...ALBERTA

CITY           SKY/WX    TMP DP  RH WIND       PRES   REMARKS
EDMONTON       CLOUDY    18  14  86 E2        29.79S
CALGARY        PTCLDY    41  27  56 W14       29.71S
LETHBRIDGE     MOCLDY    43  30  61 W21G28    29.74F
MEDICINE HAT   PTCLDY    36  32  87 SW10      29.74F WCI  28
WATERTON GATE    N/A     39  25  56 SW24G33     N/A  WCI  28
MILK RIVER       N/A     37  32  81 S9          N/A  WCI  31
ONEFOUR          N/A     25  23  93 SE7         N/A  WCI  17
$$

REGIONAL REPORTS...SASKATCHEWAN

CITY           SKY/WX    TMP DP  RH WIND       PRES   REMARKS
SWIFT CURRENT  LGT SNOW  19  19 100 S25G32    29.80F WCI   2
REGINA         FLURRIES  10   5  79 SE23G33   30.07F WCI -10
SASKATOON      CLOUDY    14   9  79 SE16      29.99F WCI  -2
CYPRESS HILLS    N/A     19  16  86 S2          N/A
VAL MARIE        N/A     19  18  93 SE12        N/A  WCI   7
ROCKGLEN         N/A     12  10  92 S18G24      N/A  WCI  -5
ASSINIBOIA       N/A     16  14  93 SE6         N/A  WCI   7
$$



USA.gov is the U.S. government's official web portal to all federal, state and local government web resources and services.